User: anonymous   Login
Location: Saint-Palais-sur-Mer
(45.6429°N, 1.0859°W)
Time: 21:57:54
(UTC+02:00)
Language:

DOVE 4 - Orbit

View from above orbital plane
View from above orbital plane
View from above satellite
View from above satellite

Ground track
Ground track

The orbit data is extracted from the following two-line orbital elements,

1 39430U 13066Q   24113.41549090  .00006983  00000-0  11633-2 0  9990
2 39430  97.7408 351.1671 0142554  70.3245 291.3276 14.63735200554883
Epoch (UTC): 22 April 2024 09:58:18
Eccentricity: 0.0142554
inclination: 97.7408°
perigee height: 580 km
apogee height: 782 km
right ascension of ascending node: 351.1671°
argument of perigee: 70.3245°
revolutions per day: 14.63735200
mean anomaly at epoch: 291.3276°
orbit number at epoch: 55488

The dashed part of the orbit path shows where the satellite is in the earth's shadow,  

DLR